Weather History for Rickenbacker, OH

Change the Weather History Date:

Saturday, January 19, 2013

  Actual Average Record
Temperature  
Mean Temperature 44 °F -  
Max Temperature 54 °F 33 °F 57 °F (2006)
Min Temperature 33 °F 19 °F 1 °F (1997)
Degree Days  
Heating Degree Days 22    
Moisture  
Dew Point 22 °F    
Average Humidity 43    
Maximum Humidity 64    
Minimum Humidity 24    
Precipitation  
Precipitation 0.00 in - - ()
Sea Level Pressure  
Sea Level Pressure 30.04 in    
Wind  
Wind Speed 16 mph (SSW)    
Max Wind Speed 29 mph    
Max Gust Speed 37 mph    
Visibility 10 miles    
Events      
Averages and records for this station are not official NWS values.
T = Trace of Precipitation, MM = Missing Value Source: NWS Daily Summary

Daily Weather History Graph

Daily Weather History Graph

Search for Another Location

Airport:

Trip Planner

Search our weather history database for the weather conditions in past years. The results will help you decide how hot, cold, wet, or windy it might be!

Date:

Astronomy

Jan. 19, 2013 Rise Set
Actual Time 7:49 AM EST 5:36 PM EST
Civil Twilight 7:19 AM EST 6:05 PM EST
Nautical Twilight 6:46 AM EST 6:38 PM EST
Astronomical Twilight 6:14 AM EST 7:10 PM EST
Moon 12:01 PM EST (1/19) 1:22 AM EST (1/19)
Length of Visible Light 10h 45m
Length of Day
9h 47m
First Quarter, 57% of the Moon is Illuminated
Jan 19
First Quarter
Jan 26
Full
Feb 3
Last Quarter
Feb 10
New
Feb 17
First Quarter

Hourly Weather History & Observations

Time (EST) Temp. Windchill Dew Point Humidity Pressure Visibility Wind Dir Wind Speed Gust Speed Precip Events Conditions
12:15 AM 34.3 °F 25.9 °F 22.8 °F 63% 30.21 in 10.0 mi South 11.5 mph - N/A   Clear
12:35 AM 34.2 °F 25.7 °F 22.8 °F 63% 30.21 in 10.0 mi South 11.5 mph - N/A   Clear
12:55 AM 33.8 °F 25.8 °F 22.6 °F 64% 30.21 in 10.0 mi South 10.4 mph - N/A   Clear
1:15 AM 33.6 °F 24.6 °F 22.5 °F 64% 30.20 in 10.0 mi South 12.7 mph - N/A   Clear
1:35 AM 34.3 °F 26.5 °F 22.5 °F 62% 30.20 in 10.0 mi South 10.4 mph - N/A   Clear
1:55 AM 34.0 °F 25.0 °F 22.5 °F 63% 30.20 in 10.0 mi South 12.7 mph - N/A   Clear
2:15 AM 34.3 °F 25.9 °F 22.3 °F 61% 30.20 in 10.0 mi South 11.5 mph - N/A   Clear
2:35 AM 35.1 °F 26.4 °F 22.1 °F 59% 30.20 in 10.0 mi South 12.7 mph - N/A   Clear
2:55 AM 36.0 °F 27.1 °F 22.1 °F 57% 30.19 in 10.0 mi South 13.8 mph - N/A   Clear
3:15 AM 36.5 °F 28.2 °F 22.3 °F 56% 30.19 in 10.0 mi SSW 12.7 mph - N/A   Clear
3:35 AM 36.7 °F 28.0 °F 22.6 °F 57% 30.18 in 10.0 mi SSW 13.8 mph - N/A   Clear
3:55 AM 36.9 °F 28.7 °F 22.6 °F 56% 30.17 in 10.0 mi SSW 12.7 mph - N/A   Clear
4:15 AM 36.9 °F 28.7 °F 22.5 °F 56% 30.17 in 10.0 mi SSW 12.7 mph 18.4 mph N/A   Clear
4:35 AM 36.9 °F 28.7 °F 22.5 °F 56% 30.17 in 10.0 mi SSW 12.7 mph - N/A   Clear
4:55 AM 37.4 °F 29.3 °F 22.1 °F 54% 30.17 in 10.0 mi SSW 12.7 mph - N/A   Clear
5:15 AM 37.6 °F 28.1 °F 22.1 °F 54% 30.16 in 10.0 mi SSW 17.3 mph - N/A   Clear
5:35 AM 37.8 °F 28.6 °F 21.9 °F 53% 30.16 in 10.0 mi SSW 16.1 mph 23.0 mph N/A   Clear
5:55 AM 37.4 °F 28.9 °F 21.7 °F 53% 30.16 in 10.0 mi SSW 13.8 mph - N/A   Clear
6:15 AM 37.0 °F 29.3 °F 21.6 °F 54% 30.17 in 10.0 mi SSW 11.5 mph 18.4 mph N/A   Clear
6:35 AM 36.9 °F 28.2 °F 21.6 °F 54% 30.17 in 10.0 mi SW 13.8 mph 18.4 mph N/A   Clear
6:55 AM 37.2 °F 27.6 °F 21.4 °F 53% 30.16 in 10.0 mi SSW 17.3 mph - N/A   Clear
7:55 AM 37.9 °F 28.9 °F 21.4 °F 51% 30.16 in 10.0 mi SSW 16.1 mph 23.0 mph N/A   Clear
8:15 AM 38.3 °F 28.7 °F 22.1 °F 52% 30.16 in 10.0 mi SSW 18.4 mph 28.8 mph N/A   Clear
8:55 AM 39.9 °F 30.0 °F 23.0 °F 51% 30.16 in 10.0 mi SSW 21.9 mph - N/A   Clear
9:35 AM 41.5 °F 32.1 °F 23.7 °F 49% 30.16 in 10.0 mi SSW 21.9 mph 26.5 mph N/A   Clear
10:55 AM 46.2 °F 38.3 °F 22.8 °F 40% 30.15 in 10.0 mi SW 21.9 mph 28.8 mph N/A   Clear
11:15 AM 47.3 °F - 22.5 °F 38% 30.14 in 10.0 mi SSW 21.9 mph 27.6 mph N/A   Clear
11:35 AM 48.2 °F - 22.3 °F 36% 30.12 in 10.0 mi SSW 25.3 mph 29.9 mph N/A   Clear
12:15 PM 49.8 °F - 21.7 °F 33% 30.08 in 10.0 mi SW 24.2 mph 33.4 mph N/A   Clear
12:35 PM 50.9 °F - 21.0 °F 31% 30.07 in 10.0 mi SSW 26.5 mph 33.4 mph N/A   Clear
12:55 PM 51.4 °F - 19.8 °F 29% 30.05 in 10.0 mi SW 28.8 mph 36.8 mph N/A   Clear
1:15 PM 52.3 °F - 18.9 °F 27% 30.03 in 10.0 mi SW 28.8 mph 35.7 mph N/A   Clear
1:35 PM 53.1 °F - 18.5 °F 26% 30.03 in 10.0 mi SSW 25.3 mph 32.2 mph N/A   Clear
1:55 PM 53.8 °F - 18.5 °F 25% 30.01 in 10.0 mi SSW 24.2 mph 35.7 mph N/A   Clear
2:15 PM 54.1 °F - 18.3 °F 25% 30.01 in 10.0 mi SW 21.9 mph 33.4 mph N/A   Clear
2:35 PM 54.5 °F - 18.5 °F 24% 29.99 in 10.0 mi SSW 25.3 mph 28.8 mph N/A   Clear
2:55 PM 54.7 °F - 18.7 °F 24% 29.98 in 10.0 mi SSW 19.6 mph 32.2 mph N/A   Clear
3:15 PM 54.9 °F - 18.7 °F 24% 29.97 in 10.0 mi SSW 21.9 mph 32.2 mph N/A   Clear
3:35 PM 54.5 °F - 18.5 °F 24% 29.96 in 10.0 mi SSW 24.2 mph 35.7 mph N/A   Clear
3:55 PM 54.7 °F - 18.7 °F 24% 29.95 in 10.0 mi SSW 26.5 mph 33.4 mph N/A   Clear
4:15 PM 54.5 °F - 18.5 °F 24% 29.94 in 10.0 mi SSW 24.2 mph 34.5 mph N/A   Clear
4:35 PM 54.1 °F - 19.4 °F 26% 29.93 in 10.0 mi SSW 23.0 mph 31.1 mph N/A   Clear
4:55 PM 53.4 °F - 20.3 °F 27% 29.93 in 10.0 mi SSW 16.1 mph 28.8 mph N/A   Clear
5:15 PM 52.5 °F - 21.4 °F 30% 29.93 in 10.0 mi SSW 17.3 mph 31.1 mph N/A   Clear
5:35 PM 51.1 °F - 22.3 °F 32% 29.93 in 10.0 mi SSW 19.6 mph 26.5 mph N/A   Clear
5:55 PM 50.2 °F - 22.3 °F 34% 29.91 in 10.0 mi South 17.3 mph - N/A   Clear
6:15 PM 49.5 °F - 23.2 °F 36% 29.90 in 10.0 mi South 19.6 mph - N/A   Clear
6:35 PM 49.5 °F - 22.8 °F 35% 29.90 in 10.0 mi South 18.4 mph 26.5 mph N/A   Clear
6:55 PM 49.3 °F - 22.8 °F 35% 29.90 in 10.0 mi SSW 18.4 mph - N/A   Clear
7:15 PM 49.1 °F - 23.0 °F 36% 29.89 in 10.0 mi SSW 18.4 mph 25.3 mph N/A   Clear
7:35 PM 49.5 °F - 22.6 °F 35% 29.90 in 10.0 mi SSW 19.6 mph 25.3 mph N/A   Clear
7:55 PM 49.3 °F - 23.0 °F 36% 29.91 in 10.0 mi SSW 15.0 mph 19.6 mph N/A   Clear
8:15 PM 48.6 °F - 23.5 °F 37% 29.91 in 10.0 mi SSW 13.8 mph 20.7 mph N/A   Clear
8:35 PM 48.0 °F - 23.9 °F 39% 29.90 in 10.0 mi SSW 19.6 mph 25.3 mph N/A   Clear
8:55 PM 47.7 °F - 24.1 °F 40% 29.90 in 10.0 mi SSW 18.4 mph 25.3 mph N/A   Clear
9:15 PM 46.9 °F - 24.8 °F 42% 29.90 in 10.0 mi SSW 17.3 mph - N/A   Clear
9:35 PM 46.2 °F 39.3 °F 25.3 °F 44% 29.90 in 10.0 mi SSW 17.3 mph 23.0 mph N/A   Clear
9:55 PM 45.9 °F 38.8 °F 25.3 °F 45% 29.90 in 10.0 mi SSW 17.3 mph - N/A   Clear
10:15 PM 45.9 °F 39.4 °F 25.5 °F 45% 29.90 in 10.0 mi SSW 15.0 mph - N/A   Clear
10:35 PM 45.9 °F 39.1 °F 25.7 °F 45% 29.88 in 10.0 mi SSW 16.1 mph - N/A   Clear
10:55 PM 45.5 °F 38.3 °F 26.1 °F 47% 29.88 in 10.0 mi SSW 17.3 mph 23.0 mph N/A   Clear
11:15 PM 45.5 °F 38.6 °F 26.4 °F 47% 29.88 in 10.0 mi SSW 16.1 mph 23.0 mph N/A   Clear
11:35 PM 45.0 °F 38.2 °F 26.6 °F 49% 29.88 in 10.0 mi SSW 15.0 mph - N/A   Clear
11:55 PM 44.4 °F 37.5 °F 27.3 °F 51% 29.87 in 10.0 mi SSW 15.0 mph - N/A   Clear